Regional Weather Roundup
Issued by NWS Northern Indiana

Home | Current Version | Previous Version | Graphics & Text | Print | Product List | Glossary On
Versions: 1 2 3 4 5 6 7 8 9 10 11 12 13 14 15 16 17 18 19 20 21 22 23 24 25 26 27 28 29 30 31 32 33 34 35 36 37 38 39 40 41 42 43 44 45 46 47 48 49 50
000
ASUS43 KIWX 040210
RWRIWX

KIWX WEATHER ROUNDUP
NATIONAL WEATHER SERVICE NORTHERN INDIANA
1000 PM EDT MON AUG 03 2015

NOTE: "FAIR" INDICATES FEW OR NO CLOUDS BELOW 12,000 FEET WITH NO
SIGNIFICANT WEATHER AND/OR OBSTRUCTIONS TO VISIBILITY.

* THESE STATIONS ARE NOT UNDER NWS QUALITY CONTROL. THEY ALSO MAY NOT
  REPORT WEATHER SUCH AS PRECIPITATION OR FOG.

INZ001>027-040300-
NORTHERN INDIANA

CITY           SKY/WX    TMP DP  RH WIND       PRES   REMARKS
GARY*          CLEAR     64  61  88 CALM      29.89R
VALPARAISO     CLEAR     66  56  70 CALM      29.90R
MICHIGAN CITY* CLEAR     63  55  77 CALM      29.89R
LAPORTE*       CLEAR     64  60  85 CALM      29.90R
KNOX*          CLEAR     64  63  94 CALM      29.89R
SOUTH BEND     CLEAR     66  56  70 W3        29.89R
GOSHEN         CLEAR     65  56  72 CALM      29.89R
MONTICELLO*    CLEAR     67  58  72 NW3       29.89R
LOGANSPORT*    CLEAR     66  59  77 N3        29.91R
ROCHESTER*     CLEAR     70  59  68 CALM      29.90R
WARSAW*        CLEAR     63  55  77 CALM      29.89S
ANGOLA*        CLEAR     64  57  77 CALM      29.89R
FORT WAYNE     PTCLDY    69  54  58 CALM      29.90R
HUNTINGTON*    CLEAR     67  59  73 N3        29.90R
PERU/GRISSOM   CLEAR     72  60  66 N7        29.89R
MARION*        CLEAR     69  61  75 N7        29.90R

$$
INZ028>050-040300-
CENTRAL INDIANA

CITY           SKY/WX    TMP DP  RH WIND       PRES   REMARKS
LAFAYETTE      CLEAR     69  57  65 NW7       29.89R
KOKOMO*        CLEAR     72  61  68 N7        29.90R
MUNCIE*        PTCLDY    69  63  81 W5        29.89R
INDIANAPOLIS   PTCLDY    77  66  68 NW8       29.88R

$$
MIZ043>046-050>051-056>058-064>065-071>073-077>080-040300-
SOUTHWEST LOWER MICHIGAN

CITY           SKY/WX    TMP DP  RH WIND       PRES   REMARKS
BATTLE CREEK     N/A    N/A N/A N/A MISG      29.88R
BENTON HARBOR  CLEAR     63  58  83 CALM      29.87R
COLDWATER*     CLEAR     63  53  70 SW3       29.89R
HILLSDALE*     CLEAR     64  53  68 W3        29.89R
HOLLAND        CLEAR     64  58  80 CALM      29.87R
GRAND RAPIDS   PTCLDY    67  52  58 SW6       29.86R
KALAMAZOO      CLEAR     66  53  63 SW3       29.89R
STURGIS*       CLEAR     64  57  77 CALM      29.89R
THREE RIVERS*  FAIR      64  56  75 CALM      29.89R

$$
OHZ001>008-015>018-024>025-040300-
NORTHWEST OHIO

CITY           SKY/WX    TMP DP  RH WIND       PRES   REMARKS
WAUSEON*       FAIR      63  57  82 W5        29.88S
DEFIANCE       CLEAR     65  54  67 CALM      29.88S
FINDLAY        CLEAR     70  54  56 NW10G20   29.87R
TOLEDO EXPRESS CLEAR     68  53  58 W7        29.87R
TOLEDO METCALF CLEAR     70  51  51 W9        29.87R
LIMA           PTCLDY    70  53  54 N8        29.89R

$$
AND FOR LAKE MICHIGAN COASTAL AND OPEN LAKE BUOY OBSERVATIONS

STATION/POSITION TEMP    WIND        PRES    VSBY  WAVE
                 AIR SEA DIR/SP/G                  HT/PER
                 (F)     (DEG/KT/KT) (MB)    (MI)  (FT/S)
CALUMET HARBOR    77     250/  3/  9   N/A
MICHIGAN CITY     75     320/  1/  1   N/A
BURNS HARBOR      76     100/  2/  3 1011.9R
SAINT JOSEPH      70      CALM  /  1 1012.2S
4 MI NW BRIDGMAN  75 74  310/  6/  8   N/A           1/ 4
MICHIGAN CITY     74 75  210/  4/  6   N/A           1/ 4
MICHIGAN CITY CG  73 75     CALM       N/A       6   0

$$
&&



USA.gov is the U.S. government's official web portal to all federal, state and local government web resources and services.